Location: Curupao
(10.4996°N, 66.6442°W)
Time: 11:03:25
(UTC+00:00)

Cosmos 2227 Rocket - Pass Details

Date: 23 May 2024
Orbit: 838 x 845 km, 71.0° (Epoch: 21 June)

Event Time Altitude Azimuth Distance (km) Brightness Sun altitude
Exits shadow 09:04:39 19° 230° (SW) 1,891 3.4 -14.2°
Maximum altitude 09:08:07 38° 287° (WNW) 1,257 2.8 -13.4°
Drops below altitude 10° 09:13:19 10° 355° (N) 2,456 4.9 -12.3°
Sets 09:15:56 0° 3° (N) 3,391 5.7 -11.7°
